Time,TemperatureF,DewpointF,PressureIn,WindDirection,WindDirectionDegrees,WindSpeedMPH,WindSpeedGustMPH,Humidity,HourlyPrecipIn,Conditions,Clouds,dailyrainin,SoftwareType,DateUTC
2013-01-09 00:03:00,34.0,-99.9,29.99,North,-999,-999.0,-999.0,-999,-99.99,,,-99.99,,2013-01-09 05:03:00,
2013-01-09 00:12:00,34.0,-99.9,29.98,SSE,154,9.0,13.0,-999,-99.99,,,-99.99,,2013-01-09 05:12:00,
2013-01-09 00:22:00,33.0,-99.9,29.98,North,-999,-999.0,-999.0,-999,-99.99,,,-99.99,,2013-01-09 05:22:00,
2013-01-09 00:33:00,33.0,-99.9,29.97,North,-999,-999.0,-999.0,-999,-99.99,,,-99.99,,2013-01-09 05:33:00,
2013-01-09 00:43:00,33.0,-99.9,29.97,SSE,148,8.0,12.0,-999,-99.99,,,-99.99,,2013-01-09 05:43:00,
2013-01-09 00:53:00,33.0,-99.9,29.97,North,-999,-999.0,-999.0,-999,-99.99,,,-99.99,,2013-01-09 05:53:00,
2013-01-09 01:02:00,33.0,-99.9,29.96,North,-999,-999.0,-999.0,-999,-99.99,,,-99.99,,2013-01-09 06:02:00,
2013-01-09 01:12:00,33.0,-99.9,29.96,SSE,152,10.0,14.0,-999,-99.99,,,-99.99,,2013-01-09 06:12:00,
2013-01-09 01:22:00,33.0,-99.9,29.95,North,-999,-999.0,-999.0,-999,-99.99,,,-99.99,,2013-01-09 06:22:00,
2013-01-09 01:32:00,33.0,-99.9,29.94,North,-999,-999.0,-999.0,-999,-99.99,,,-99.99,,2013-01-09 06:32:00,
2013-01-09 01:43:00,33.0,-99.9,29.94,SSE,155,10.0,14.0,-999,-99.99,,,-99.99,,2013-01-09 06:43:00,
2013-01-09 01:53:00,33.0,-99.9,29.93,North,-999,-999.0,-999.0,-999,-99.99,,,-99.99,,2013-01-09 06:53:00,
2013-01-09 02:02:00,33.0,-99.9,29.93,North,-999,-999.0,-999.0,-999,-99.99,,,-99.99,,2013-01-09 07:02:00,
2013-01-09 02:12:00,33.0,-99.9,29.91,North,-999,-999.0,-999.0,-999,-99.99,,,-99.99,,2013-01-09 07:12:00,
2013-01-09 02:22:00,33.0,-99.9,29.91,North,-999,-999.0,-999.0,-999,-99.99,,,-99.99,,2013-01-09 07:22:00,
2013-01-09 02:32:00,33.0,-99.9,29.90,North,-999,-999.0,-999.0,-999,-99.99,,,-99.99,,2013-01-09 07:32:00,
2013-01-09 02:43:00,33.0,-99.9,29.91,SSE,161,8.0,14.0,-999,-99.99,,,-99.99,,2013-01-09 07:43:00,
2013-01-09 02:53:00,33.0,-99.9,29.90,North,-999,-999.0,-999.0,-999,-99.99,,,-99.99,,2013-01-09 07:53:00,
2013-01-09 03:02:00,33.0,-99.9,29.88,North,-999,-999.0,-999.0,-999,-99.99,,,-99.99,,2013-01-09 08:02:00,
2013-01-09 03:12:00,33.0,-99.9,29.87,SE,145,9.0,14.0,-999,-99.99,,,-99.99,,2013-01-09 08:12:00,
2013-01-09 03:22:00,34.0,-99.9,29.87,North,-999,-999.0,-999.0,-999,-99.99,,,-99.99,,2013-01-09 08:22:00,
2013-01-09 03:32:00,34.0,-99.9,29.86,North,-999,-999.0,-999.0,-999,-99.99,,,-99.99,,2013-01-09 08:32:00,
2013-01-09 03:43:00,34.0,-99.9,29.86,SSE,155,9.0,13.0,-999,-99.99,,,-99.99,,2013-01-09 08:43:00,
2013-01-09 03:53:00,34.0,-99.9,29.86,North,-999,-999.0,-999.0,-999,-99.99,,,-99.99,,2013-01-09 08:53:00,
2013-01-09 04:03:00,34.0,-99.9,29.85,North,-999,-999.0,-999.0,-999,-99.99,,,-99.99,,2013-01-09 09:03:00,
2013-01-09 04:12:00,34.0,-99.9,29.85,North,-999,-999.0,-999.0,-999,-99.99,,,-99.99,,2013-01-09 09:12:00,
2013-01-09 04:22:00,34.0,-99.9,29.84,North,-999,-999.0,-999.0,-999,-99.99,,,-99.99,,2013-01-09 09:22:00,
2013-01-09 04:32:00,34.0,-99.9,29.83,North,-999,-999.0,-999.0,-999,-99.99,,,-99.99,,2013-01-09 09:32:00,
2013-01-09 04:42:00,35.0,-99.9,29.83,SSE,152,10.0,14.0,-999,-99.99,,,-99.99,,2013-01-09 09:42:00,
2013-01-09 04:53:00,35.0,-99.9,29.81,North,-999,-999.0,-999.0,-999,-99.99,,,-99.99,,2013-01-09 09:53:00,
2013-01-09 05:02:00,35.0,-99.9,29.80,North,-999,-999.0,-999.0,-999,-99.99,,,-99.99,,2013-01-09 10:02:00,
2013-01-09 05:12:00,35.0,-99.9,29.80,SSE,159,10.0,17.0,-999,-99.99,,,-99.99,,2013-01-09 10:12:00,
2013-01-09 05:22:00,35.0,-99.9,29.80,North,-999,-999.0,-999.0,-999,-99.99,,,-99.99,,2013-01-09 10:22:00,
2013-01-09 05:32:00,36.0,-99.9,29.79,North,-999,-999.0,-999.0,-999,-99.99,,,-99.99,,2013-01-09 10:32:00,
2013-01-09 05:42:00,36.0,-99.9,29.79,North,-999,-999.0,-999.0,-999,-99.99,,,-99.99,,2013-01-09 10:42:00,
2013-01-09 05:53:00,36.0,-99.9,29.79,North,-999,-999.0,-999.0,-999,-99.99,,,-99.99,,2013-01-09 10:53:00,
2013-01-09 06:02:00,36.0,-99.9,29.78,North,-999,-999.0,-999.0,-999,-99.99,,,-99.99,,2013-01-09 11:02:00,
2013-01-09 06:12:00,36.0,-99.9,29.78,SSE,162,8.0,13.0,-999,-99.99,,,-99.99,,2013-01-09 11:12:00,
2013-01-09 06:22:00,36.0,-99.9,29.78,North,-999,-999.0,-999.0,-999,-99.99,,,-99.99,,2013-01-09 11:22:00,
2013-01-09 06:33:00,36.0,-99.9,29.78,North,-999,-999.0,-999.0,-999,-99.99,,,-99.99,,2013-01-09 11:33:00,
2013-01-09 06:43:00,36.0,-99.9,29.77,SSE,158,8.0,11.0,-999,-99.99,,,-99.99,,2013-01-09 11:43:00,
2013-01-09 06:53:00,36.0,-99.9,29.77,North,-999,-999.0,-999.0,-999,-99.99,,,-99.99,,2013-01-09 11:53:00,
2013-01-09 07:03:00,36.0,-99.9,29.76,North,-999,-999.0,-999.0,-999,-99.99,,,-99.99,,2013-01-09 12:03:00,
2013-01-09 07:13:00,36.0,-99.9,29.76,SSE,160,8.0,11.0,-999,-99.99,,,-99.99,,2013-01-09 12:13:00,
2013-01-09 07:23:00,36.0,-99.9,29.77,North,-999,-999.0,-999.0,-999,-99.99,,,-99.99,,2013-01-09 12:23:00,
2013-01-09 07:33:00,36.0,-99.9,29.77,North,-999,-999.0,-999.0,-999,-99.99,,,-99.99,,2013-01-09 12:33:00,
2013-01-09 07:43:00,36.0,-99.9,29.77,SSE,159,4.0,5.0,-999,-99.99,,,-99.99,,2013-01-09 12:43:00,
2013-01-09 07:53:00,36.0,-99.9,29.77,North,-999,-999.0,-999.0,-999,-99.99,,,-99.99,,2013-01-09 12:53:00,
2013-01-09 08:03:00,36.0,-99.9,29.77,SSE,154,4.0,5.0,-999,-99.99,,,-99.99,,2013-01-09 13:03:00,
2013-01-09 08:12:00,36.0,-99.9,29.77,SSE,154,4.0,5.0,-999,-99.99,,,-99.99,,2013-01-09 13:12:00,
2013-01-09 08:23:00,35.0,-99.9,29.77,North,-999,-999.0,-999.0,-999,-99.99,,,-99.99,,2013-01-09 13:23:00,
2013-01-09 08:33:00,37.0,-99.9,29.78,North,-999,-999.0,-999.0,-999,-99.99,,,-99.99,,2013-01-09 13:33:00,
2013-01-09 08:43:00,37.0,-99.9,29.78,WSW,244,3.0,8.0,-999,-99.99,,,-99.99,,2013-01-09 13:43:00,
2013-01-09 08:53:00,38.0,-99.9,29.77,North,-999,-999.0,-999.0,-999,-99.99,,,-99.99,,2013-01-09 13:53:00,
2013-01-09 09:03:00,38.0,-99.9,29.78,North,-999,-999.0,-999.0,-999,-99.99,,,-99.99,,2013-01-09 14:03:00,
2013-01-09 09:12:00,38.0,-99.9,29.78,West,267,7.0,12.0,-999,-99.99,,,-99.99,,2013-01-09 14:12:00,
2013-01-09 09:23:00,38.0,-99.9,29.78,North,-999,-999.0,-999.0,-999,-99.99,,,-99.99,,2013-01-09 14:23:00,
2013-01-09 09:33:00,38.0,-99.9,29.79,North,-999,-999.0,-999.0,-999,-99.99,,,-99.99,,2013-01-09 14:33:00,
2013-01-09 09:43:00,38.0,-99.9,29.79,WSW,254,6.0,12.0,-999,-99.99,,,-99.99,,2013-01-09 14:43:00,
2013-01-09 09:53:00,38.0,-99.9,29.80,North,-999,-999.0,-999.0,-999,-99.99,,,-99.99,,2013-01-09 14:53:00,
2013-01-09 10:04:00,38.0,-99.9,29.80,North,-999,-999.0,-999.0,-999,-99.99,,,-99.99,,2013-01-09 15:04:00,
2013-01-09 10:13:00,38.0,-99.9,29.80,West,259,9.0,14.0,-999,-99.99,,,-99.99,,2013-01-09 15:13:00,
2013-01-09 10:23:00,38.0,-99.9,29.80,North,-999,-999.0,-999.0,-999,-99.99,,,-99.99,,2013-01-09 15:23:00,
2013-01-09 10:33:00,38.0,-99.9,29.80,North,-999,-999.0,-999.0,-999,-99.99,,,-99.99,,2013-01-09 15:33:00,
2013-01-09 10:43:00,38.0,-99.9,29.80,North,-999,-999.0,-999.0,-999,-99.99,,,-99.99,,2013-01-09 15:43:00,
2013-01-09 10:53:00,38.0,-99.9,29.80,North,-999,-999.0,-999.0,-999,-99.99,,,-99.99,,2013-01-09 15:53:00,
2013-01-09 11:04:00,37.0,-99.9,29.81,North,-999,-999.0,-999.0,-999,-99.99,,,-99.99,,2013-01-09 16:04:00,
2013-01-09 11:12:00,37.0,-99.9,29.81,WSW,258,13.0,20.0,-999,-99.99,,,-99.99,,2013-01-09 16:12:00,
2013-01-09 11:23:00,37.0,-99.9,29.80,North,-999,-999.0,-999.0,-999,-99.99,,,-99.99,,2013-01-09 16:23:00,
2013-01-09 11:34:00,38.0,-99.9,29.80,North,-999,-999.0,-999.0,-999,-99.99,,,-99.99,,2013-01-09 16:34:00,
2013-01-09 11:43:00,38.0,-99.9,29.80,WSW,256,11.0,19.0,-999,-99.99,,,-99.99,,2013-01-09 16:43:00,
2013-01-09 11:53:00,39.0,-99.9,29.80,North,-999,-999.0,-999.0,-999,-99.99,,,-99.99,,2013-01-09 16:53:00,
2013-01-09 12:03:00,38.0,-99.9,29.80,North,-999,-999.0,-999.0,-999,-99.99,,,-99.99,,2013-01-09 17:03:00,
2013-01-09 12:12:00,38.0,-99.9,29.81,West,264,10.0,26.0,-999,-99.99,,,-99.99,,2013-01-09 17:12:00,
2013-01-09 12:23:00,38.0,-99.9,29.81,North,-999,-999.0,-999.0,-999,-99.99,,,-99.99,,2013-01-09 17:23:00,
2013-01-09 12:33:00,38.0,-99.9,29.81,North,-999,-999.0,-999.0,-999,-99.99,,,-99.99,,2013-01-09 17:33:00,
2013-01-09 12:43:00,37.0,-99.9,29.81,WSW,255,14.0,26.0,-999,-99.99,,,-99.99,,2013-01-09 17:43:00,
2013-01-09 12:53:00,37.0,-99.9,29.81,North,-999,-999.0,-999.0,-999,-99.99,,,-99.99,,2013-01-09 17:53:00,
2013-01-09 13:03:00,37.0,-99.9,29.81,North,-999,-999.0,-999.0,-999,-99.99,,,-99.99,,2013-01-09 18:03:00,
2013-01-09 13:13:00,37.0,-99.9,29.81,WSW,252,19.0,28.0,-999,-99.99,,,-99.99,,2013-01-09 18:13:00,
2013-01-09 13:24:00,37.0,-99.9,29.81,North,-999,-999.0,-999.0,-999,-99.99,,,-99.99,,2013-01-09 18:24:00,
2013-01-09 13:33:00,37.0,-99.9,29.81,North,-999,-999.0,-999.0,-999,-99.99,,,-99.99,,2013-01-09 18:33:00,
2013-01-09 13:53:00,37.0,-99.9,29.82,North,-999,-999.0,-999.0,-999,-99.99,,,-99.99,,2013-01-09 18:53:00,
2013-01-09 14:03:00,37.0,-99.9,29.83,North,-999,-999.0,-999.0,-999,-99.99,,,-99.99,,2013-01-09 19:03:00,
2013-01-09 14:13:00,37.0,-99.9,29.83,North,-999,-999.0,-999.0,-999,-99.99,,,-99.99,,2013-01-09 19:13:00,
2013-01-09 14:23:00,36.0,-99.9,29.84,North,-999,-999.0,-999.0,-999,-99.99,,,-99.99,,2013-01-09 19:23:00,
2013-01-09 14:33:00,37.0,-99.9,29.85,North,-999,-999.0,-999.0,-999,-99.99,,,-99.99,,2013-01-09 19:33:00,
2013-01-09 14:43:00,37.0,-99.9,29.85,WSW,256,12.0,19.0,-999,-99.99,,,-99.99,,2013-01-09 19:43:00,
2013-01-09 14:53:00,36.0,-99.9,29.87,North,-999,-999.0,-999.0,-999,-99.99,,,-99.99,,2013-01-09 19:53:00,
2013-01-09 15:03:00,35.0,-99.9,29.88,North,-999,-999.0,-999.0,-999,-99.99,,,-99.99,,2013-01-09 20:03:00,
2013-01-09 15:12:00,33.0,-99.9,29.89,WNW,298,18.0,23.0,-999,-99.99,,,-99.99,,2013-01-09 20:12:00,
2013-01-09 15:23:00,34.0,-99.9,29.90,North,-999,-999.0,-999.0,-999,-99.99,,,-99.99,,2013-01-09 20:23:00,
2013-01-09 15:33:00,34.0,-99.9,29.91,North,-999,-999.0,-999.0,-999,-99.99,,,-99.99,,2013-01-09 20:33:00,
2013-01-09 15:43:00,35.0,-99.9,29.91,North,-999,-999.0,-999.0,-999,-99.99,,,-99.99,,2013-01-09 20:43:00,
2013-01-09 15:53:00,35.0,-99.9,29.92,North,-999,-999.0,-999.0,-999,-99.99,,,-99.99,,2013-01-09 20:53:00,
2013-01-09 16:04:00,35.0,-99.9,29.93,North,-999,-999.0,-999.0,-999,-99.99,,,-99.99,,2013-01-09 21:04:00,
2013-01-09 16:13:00,35.0,-99.9,29.94,West,276,15.0,23.0,-999,-99.99,,,-99.99,,2013-01-09 21:13:00,
2013-01-09 16:23:00,34.0,-99.9,29.95,North,-999,-999.0,-999.0,-999,-99.99,,,-99.99,,2013-01-09 21:23:00,
2013-01-09 16:33:00,34.0,-99.9,29.96,North,-999,-999.0,-999.0,-999,-99.99,,,-99.99,,2013-01-09 21:33:00,
2013-01-09 16:43:00,35.0,-99.9,29.96,West,277,19.0,26.0,-999,-99.99,,,-99.99,,2013-01-09 21:43:00,
2013-01-09 16:53:00,34.0,-99.9,29.97,North,-999,-999.0,-999.0,-999,-99.99,,,-99.99,,2013-01-09 21:53:00,
2013-01-09 17:03:00,34.0,-99.9,29.98,North,-999,-999.0,-999.0,-999,-99.99,,,-99.99,,2013-01-09 22:03:00,
2013-01-09 17:12:00,33.0,-99.9,30.00,North,-999,-999.0,-999.0,-999,-99.99,,,-99.99,,2013-01-09 22:12:00,
2013-01-09 17:23:00,34.0,-99.9,30.01,North,-999,-999.0,-999.0,-999,-99.99,,,-99.99,,2013-01-09 22:23:00,
2013-01-09 17:33:00,34.0,-99.9,30.03,North,-999,-999.0,-999.0,-999,-99.99,,,-99.99,,2013-01-09 22:33:00,
2013-01-09 17:43:00,34.0,-99.9,30.04,North,-999,-999.0,-999.0,-999,-99.99,,,-99.99,,2013-01-09 22:43:00,
2013-01-09 17:53:00,34.0,-99.9,30.04,North,-999,-999.0,-999.0,-999,-99.99,,,-99.99,,2013-01-09 22:53:00,
2013-01-09 18:03:00,34.0,-99.9,30.06,North,-999,-999.0,-999.0,-999,-99.99,,,-99.99,,2013-01-09 23:03:00,
2013-01-09 18:13:00,34.0,-99.9,30.06,WNW,287,21.0,27.0,-999,-99.99,,,-99.99,,2013-01-09 23:13:00,
2013-01-09 18:23:00,34.0,-99.9,30.09,North,-999,-999.0,-999.0,-999,-99.99,,,-99.99,,2013-01-09 23:23:00,
2013-01-09 18:33:00,34.0,-99.9,30.10,North,-999,-999.0,-999.0,-999,-99.99,,,-99.99,,2013-01-09 23:33:00,
2013-01-09 18:43:00,34.0,-99.9,30.11,WNW,286,18.0,30.0,-999,-99.99,,,-99.99,,2013-01-09 23:43:00,
2013-01-09 18:53:00,34.0,-99.9,30.11,North,-999,-999.0,-999.0,-999,-99.99,,,-99.99,,2013-01-09 23:53:00,
2013-01-09 19:03:00,34.0,-99.9,30.12,North,-999,-999.0,-999.0,-999,-99.99,,,-99.99,,2013-01-10 00:03:00,
2013-01-09 19:12:00,34.0,-99.9,30.13,North,-999,-999.0,-999.0,-999,-99.99,,,-99.99,,2013-01-10 00:12:00,
2013-01-09 19:22:00,34.0,-99.9,30.15,North,-999,-999.0,-999.0,-999,-99.99,,,-99.99,,2013-01-10 00:22:00,
2013-01-09 19:33:00,34.0,-99.9,30.16,North,-999,-999.0,-999.0,-999,-99.99,,,-99.99,,2013-01-10 00:33:00,
2013-01-09 19:43:00,34.0,-99.9,30.16,WNW,283,18.0,24.0,-999,-99.99,,,-99.99,,2013-01-10 00:43:00,
2013-01-09 19:53:00,35.0,-99.9,30.18,North,-999,-999.0,-999.0,-999,-99.99,,,-99.99,,2013-01-10 00:53:00,
2013-01-09 20:03:00,35.0,-99.9,30.19,North,-999,-999.0,-999.0,-999,-99.99,,,-99.99,,2013-01-10 01:03:00,
2013-01-09 20:12:00,35.0,-99.9,30.19,West,274,10.0,21.0,-999,-99.99,,,-99.99,,2013-01-10 01:12:00,
2013-01-09 20:22:00,35.0,-99.9,30.20,North,-999,-999.0,-999.0,-999,-99.99,,,-99.99,,2013-01-10 01:22:00,
2013-01-09 20:33:00,35.0,-99.9,30.22,North,-999,-999.0,-999.0,-999,-99.99,,,-99.99,,2013-01-10 01:33:00,
2013-01-09 20:43:00,34.0,-99.9,30.22,West,279,10.0,14.0,-999,-99.99,,,-99.99,,2013-01-10 01:43:00,
2013-01-09 20:53:00,34.0,-99.9,30.22,North,-999,-999.0,-999.0,-999,-99.99,,,-99.99,,2013-01-10 01:53:00,
2013-01-09 21:03:00,34.0,-99.9,30.22,North,-999,-999.0,-999.0,-999,-99.99,,,-99.99,,2013-01-10 02:03:00,
2013-01-09 21:13:00,34.0,-99.9,30.23,West,261,9.0,14.0,-999,-99.99,,,-99.99,,2013-01-10 02:13:00,
2013-01-09 21:22:00,34.0,-99.9,30.24,North,-999,-999.0,-999.0,-999,-99.99,,,-99.99,,2013-01-10 02:22:00,
2013-01-09 21:33:00,34.0,-99.9,30.25,North,-999,-999.0,-999.0,-999,-99.99,,,-99.99,,2013-01-10 02:33:00,
2013-01-09 21:43:00,34.0,-99.9,30.25,North,-999,-999.0,-999.0,-999,-99.99,,,-99.99,,2013-01-10 02:43:00,
2013-01-09 21:53:00,34.0,-99.9,30.25,North,-999,-999.0,-999.0,-999,-99.99,,,-99.99,,2013-01-10 02:53:00,
2013-01-09 22:03:00,35.0,-99.9,30.26,North,-999,-999.0,-999.0,-999,-99.99,,,-99.99,,2013-01-10 03:03:00,
2013-01-09 22:12:00,35.0,-99.9,30.26,West,274,12.0,17.0,-999,-99.99,,,-99.99,,2013-01-10 03:12:00,
2013-01-09 22:22:00,35.0,-99.9,30.28,North,-999,-999.0,-999.0,-999,-99.99,,,-99.99,,2013-01-10 03:22:00,
2013-01-09 22:33:00,36.0,-99.9,30.28,North,-999,-999.0,-999.0,-999,-99.99,,,-99.99,,2013-01-10 03:33:00,
2013-01-09 22:43:00,36.0,-99.9,30.28,WNW,287,16.0,29.0,-999,-99.99,,,-99.99,,2013-01-10 03:43:00,
2013-01-09 22:53:00,36.0,-99.9,30.29,North,-999,-999.0,-999.0,-999,-99.99,,,-99.99,,2013-01-10 03:53:00,
2013-01-09 23:03:00,36.0,-99.9,30.29,North,-999,-999.0,-999.0,-999,-99.99,,,-99.99,,2013-01-10 04:03:00,
2013-01-09 23:12:00,36.0,-99.9,30.29,WNW,290,16.0,23.0,-999,-99.99,,,-99.99,,2013-01-10 04:12:00,
2013-01-09 23:22:00,36.0,-99.9,30.30,North,-999,-999.0,-999.0,-999,-99.99,,,-99.99,,2013-01-10 04:22:00,
2013-01-09 23:32:00,36.0,-99.9,30.32,North,-999,-999.0,-999.0,-999,-99.99,,,-99.99,,2013-01-10 04:32:00,
2013-01-09 23:43:00,36.0,-99.9,30.32,West,272,12.0,22.0,-999,-99.99,,,-99.99,,2013-01-10 04:43:00,
2013-01-09 23:53:00,36.0,-99.9,30.33,North,-999,-999.0,-999.0,-999,-99.99,,,-99.99,,2013-01-10 04:53:00,